CAPE
0 0 0 0 0 0 0 0 0 0 0 0 0 0 0 0 60 146 0 0 412 0 0 0 0 0 0 0 0 0 41 442 925 1096 1016 729 267 64 0 0 0 0 0 0 0 0 0 0 0
0 0 0 0 0 0 0 0 0 0 0 0 0 0 0 31 45 90 0 0 628 11 0 0 0 0 0 0 0 0 0 200 672 779 735 382 177 42 0 0 0 0 0 0 0 0 0 0 0
0 0 0 0 0 0 0 0 0 0 5 0 0 0 0 53 8 59 2 9 643 76 0 0 0 0 0 0 0 0 0 2 154 305 233 156 76 0 0 0 0 0 0 0 0 0 0 0 0
0 0 0 0 0 0 0 0 0 0 0 0 0 0 0 73 79 62 11 1 380 199 0 2 0 0 0 0 0 0 0 0 0 1 22 43 3 0 0 0 0 0 0 0 0 0 0 2 30
0 0 0 0 0 0 0 0 0 0 8 0 0 0 3 72 62 0 35 51 163 323 125 148 0 0 0 0 0 0 0 0 0 0 0 0 0 0 0 0 0 0 0 0 0 7 24 54 120
0 0 0 0 0 0 0 0 0 0 0 26 1 1 22 3 93 14 26 59 84 245 370 469 39 0 0 0 0 0 0 0 0 0 0 0 0 0 0 0 0 0 0 0 2 29 36 67 195
0 0 0 0 0 0 0 0 0 0 0 0 8 14 28 26 43 40 0 5 18 226 751 619 242 0 0 0 0 0 0 0 0 0 0 0 0 0 0 0 0 0 0 12 13 37 73 116 176
0 0 0 0 0 0 0 0 0 0 0 0 2 15 39 179 66 28 0 0 9 192 1000 875 529 171 0 0 0 0 0 0 0 0 0 0 0 0 0 0 0 0 0 48 40 80 181 226 290
0 0 0 0 0 0 0 0 0 0 0 0 0 3 106 140 44 50 0 0 0 27 744 1451 1065 379 43 19 66 4 0 0 0 0 0 0 0 0 0 0 0 0 3 96 108 183 320 430 523
0 0 0 0 0 0 0 0 0 0 0 0 0 0 2 78 174 182 5 0 16 0 51 572 1122 619 132 38 89 121 56 66 7 0 0 0 4 0 1 10 0 16 0 103 177 287 571 722 620
0 0 0 0 0 0 0 0 0 0 0 0 0 0 16 12 99 213 92 20 1 16 2 186 594 773 408 168 225 322 159 65 75 12 22 95 20 0 0 4 7 1 74 82 172 332 628 619 564
0 0 0 0 0 0 0 0 0 0 0 0 0 0 47 1 55 212 181 64 51 60 61 321 609 913 783 631 355 676 599 506 281 181 92 44 119 12 0 8 50 1 48 86 62 182 386 478 698
0 0 0 0 0 0 0 0 0 0 0 0 0 0 22 100 5 93 197 77 2 7 2 262 489 952 1024 685 967 443 632 1085 840 640 449 205 200 135 112 65 36 100 68 226 91 250 284 548 765
0 0 0 0 0 0 0 0 0 0 0 0 0 0 0 18 4 3 55 29 52 29 13 28 1221 1603 1591 1241 796 1346 891 801 1071 1167 1045 598 327 467 288 155 254 123 170 204 242 148 393 643 912
0 0 0 0 0 0 0 0 0 0 0 0 0 0 0 1 17 0 7 30 19 5 25 7 128 1367 1562 1286 1432 949 1586 1471 954 1445 1317 1222 823 436 617 425 165 541 313 402 392 330 428 925 883
0 0 0 0 0 0 0 0 0 0 0 0 0 0 0 0 0 2 18 73 18 1 11 5 0 319 725 1239 1519 1434 1165 1288 1793 1542 1325 1887 1452 1131 740 924 755 492 695 402 610 703 750 707 628
0 0 0 0 0 0 0 0 0 0 0 0 0 0 0 3 5 7 3 68 7 0 2 50 39 141 1378 1387 1553 1901 1972 2003 1798 1300 1357 1481 2022 1653 1582 1229 1026 1064 778 747 629 414 603 556 695
0 0 0 0 0 0 0 0 0 0 0 0 0 0 0 0 0 1 41 18 10 63 56 82 151 245 490 671 1443 1267 832 624 720 839 1151 1275 1774 2130 1516 1620 1294 1196 1076 871 806 656 617 560 505
0 0 0 0 0 0 0 0 0 0 0 0 0 0 0 0 1 0 5 11 36 0 0 0 17 71 130 21 53 35 70 87 307 821 1155 1419 1856 1815 1956 1471 1684 1182 1273 1040 1067 834 676 685 388
0 0 0 0 0 0 0 0 0 0 0 0 0 0 0 0 0 4 88 88 20 7 1 0 0 0 0 31 216 330 355 264 500 965 1340 1539 1821 1846 1832 1697 1524 1400 1423 1175 1225 969 652 520 559
0 0 0 0 0 0 0 0 0 0 0 0 0 0 0 0 0 6 16 34 56 0 0 0 1 2 23 60 533 671 378 256 891 1315 1506 1596 1815 1907 1875 1547 1576 1618 1348 1320 1268 883 675 680 471
0 0 0 0 0 0 0 0 0 0 0 0 0 0 0 0 0 0 0 1 0 0 0 0 0 3 20 99 846 466 440 261 484 1398 1731 1810 1807 1856 1772 1539 1607 1694 1359 1652 1141 1063 720 872 1025
0 0 0 0 0 0 0 0 0 0 0 0 0 0 0 0 0 0 0 0 0 0 0 0 0 0 2 280 462 681 698 1043 1382 1721 2038 1938 1822 1817 1625 1421 1794 1742 1356 1690 1351 1325 1129 1248 878
3 3 5 4 9 3 0 0 0 0 0 0 0 0 0 0 0 0 0 0 0 0 0 0 0 0 14 281 846 733 627 670 1567 1606 2215 1974 1754 1728 1518 1463 1677 1763 1594 1560 1414 1430 1232 908 840
23 54 0 8 6 5 0 0 0 0 0 0 0 3 6 9 3 0 0 0 0 0 0 0 0 0 20 513 1232 577 244 1379 2511 2260 2274 1830 1554 1377 1437 1481 1642 1602 1597 1499 1267 1225 1060 1033 930
7 23 5 0 0 9 3 11 0 0 0 0 0 1 0 0 0 0 0 0 0 0 0 0 0 0 170 702 468 1311 1099 2385 2863 2371 2078 1553 1288 1498 1426 1509 1725 1702 1530 1369 1267 1067 1013 854 564
32 42 96 122 37 10 0 0 0 0 0 0 0 2 9 12 0 0 0 0 0 0 51 0 0 0 29 108 731 1806 2156 2477 2791 2243 2124 1662 1582 1513 1522 1983 1742 1530 1224 1158 1020 850 489 497 576
170 142 125 83 10 19 5 7 0 6 30 2 0 12 3 15 0 0 0 0 286 313 317 0 0 4 55 1363 2020 2255 2828 2649 2654 2280 2311 2045 2216 2031 1958 1756 1392 1173 1067 895 820 539 461 332 243
12 136 100 22 11 0 3 0 3 0 74 1 59 5 55 55 0 0 4 339 611 1006 1032 9 24 976 1813 2052 2189 2531 2368 2906 2794 2586 2106 2023 2052 1887 1535 1449 1099 945 888 798 375 387 550 89 213
73 17 70 0 5 66 33 0 2 0 0 0 0 83 83 1 0 0 454 1109 854 775 900 327 531 1690 2088 2413 2527 2688 2431 2276 2237 1637 1386 1139 1151 1043 936 933 619 636 819 435 344 192 370 171 86
CIN
0 0 0 0 0 0 0 0 0 0 0 0 0 0 0 0 -37 -51 0 0 -261 0 0 0 0 0 0 0 0 0 -431 -292 -209 -172 -172 -194 -238 -278 0 0 0 0 0 0 0 0 0 0 0
0 0 0 0 0 0 0 0 0 0 0 0 0 0 0 -64 -58 -64 0 0 -208 -252 0 0 0 0 0 0 0 0 0 -354 -258 -229 -212 -256 -265 -317 0 0 0 0 0 0 0 0 0 0 0
0 0 0 0 0 0 0 0 0 0 -1 0 0 0 0 -35 -23 -101 -51 -217 -226 -399 0 0 0 0 0 0 0 0 0 -16 -351 -303 -306 -317 -328 0 0 0 0 0 0 0 0 0 0 0 0
0 0 0 0 0 0 0 0 0 0 0 0 -3 0 0 -60 -20 -186 -224 -5 -236 -360 -142 -648 0 0 0 0 0 0 0 0 0 -10 -412 -394 -247 0 0 0 0 0 0 0 0 0 0 -149 -356
0 0 0 0 0 0 0 0 0 0 -2 0 0 0 -49 -77 -82 0 -214 -228 -220 -263 -367 -483 0 0 0 0 0 0 0 0 0 0 0 0 0 0 0 0 0 0 0 0 0 -360 -375 -346 -291
0 0 0 0 0 0 0 0 0 0 0 -4 -2 -24 -11 -75 -83 -151 -203 -191 -178 -219 -271 -420 -452 0 0 0 0 0 0 0 0 0 0 0 0 0 0 0 0 0 0 0 -134 -366 -342 -313 -256
0 0 0 0 0 0 0 0 0 0 0 0 -5 -5 -10 -30 -77 -130 0 -144 -153 -178 -237 -379 -522 0 0 0 0 0 0 0 0 0 0 0 0 0 0 0 0 0 0 -436 -427 -356 -321 -307 -287
0 0 0 0 0 0 0 0 0 0 0 0 -5 -5 -6 -7 -30 -104 0 0 -22 -158 -195 -285 -459 -593 0 0 0 0 0 0 0 0 0 0 0 0 0 0 0 0 0 -400 -396 -349 -296 -280 -255
0 0 0 0 0 0 0 0 0 0 0 0 0 -3 -40 -9 -55 -41 0 0 0 -135 -135 -188 -317 -494 -621 -653 -652 -223 0 0 0 0 0 0 0 0 0 0 0 0 -180 -402 -387 -325 -264 -237 -202
0 0 0 0 0 0 0 0 0 0 0 0 0 -4 -20 -45 -12 -12 -10 0 -57 0 -142 -118 -194 -341 -474 -463 -514 -596 -633 -627 -228 0 0 0 -207 0 -254 -617 0 -564 -35 -432 -373 -305 -213 -182 -187
0 0 0 0 0 0 0 0 0 0 0 0 0 0 -36 -47 -35 -26 -22 -49 -6 -34 -87 -97 -139 -256 -291 -311 -375 -463 -509 -590 -617 -666 -687 -618 -654 0 -86 -432 -581 -66 -491 -494 -403 -318 -231 -228 -213
0 0 0 0 0 0 0 0 -0 0 0 0 0 0 -13 -2 -33 -20 -8 -31 -15 -34 -25 -60 -92 -139 -193 -177 -229 -355 -354 -405 -494 -551 -588 -642 -610 -625 0 -545 -468 -14 -513 -498 -481 -419 -317 -283 -180
0 0 0 0 0 0 0 0 0 0 0 0 0 0 -7 -10 -53 -12 -4 -14 -137 -18 -85 -13 -66 -101 -150 -142 -118 -177 -238 -253 -325 -392 -495 -562 -529 -548 -519 -469 -451 -441 -522 -431 -467 -349 -345 -270 -196
0 0 0 0 0 0 0 0 0 0 0 0 0 0 0 -24 -68 -22 -58 -56 -82 -80 -120 -49 -65 -103 -162 -155 -158 -141 -168 -174 -173 -205 -288 -451 -527 -416 -439 -446 -315 -351 -383 -361 -396 -397 -250 -215 -128
0 0 0 0 0 0 0 0 0 0 0 0 0 0 0 -1 -5 -34 -31 -53 -91 -135 -140 -157 -137 -96 -153 -169 -185 -215 -178 -170 -171 -130 -142 -254 -374 -445 -347 -312 -412 -252 -267 -214 -223 -280 -227 -104 -92
0 0 0 0 0 0 0 0 0 0 0 0 0 0 0 0 0 -3 -28 -33 -79 -11 -149 -155 0 -47 -125 -171 -175 -195 -208 -182 -143 -157 -149 -111 -252 -300 -320 -214 -222 -281 -211 -224 -149 -100 -91 -121 -103
0 0 0 0 0 0 0 0 0 0 0 0 0 0 0 -105 -81 -31 -29 -56 -41 0 -38 -127 -154 -141 -87 -126 -161 -163 -149 -134 -148 -158 -149 -154 -169 -253 -187 -202 -201 -162 -200 -175 -160 -189 -120 -133 -88
0 0 0 0 0 0 0 0 0 0 0 0 0 0 0 0 0 -21 -36 -65 -57 -57 -100 -174 -182 -168 -137 -127 -117 -156 -188 -207 -181 -167 -142 -153 -161 -181 -224 -157 -191 -147 -151 -154 -138 -150 -146 -148 -112
0 0 0 0 0 0 0 0 0 0 0 0 0 0 0 -0 -79 0 -42 -57 -57 -0 -0 0 -265 -260 -238 -264 -244 -257 -268 -248 -202 -180 -146 -136 -159 -179 -158 -206 -131 -180 -131 -134 -100 -117 -140 -114 -147
0 0 0 0 0 0 0 0 0 0 0 0 0 0 0 0 0 -11 -12 -14 -43 -81 -35 0 0 -46 0 -222 -279 -243 -213 -196 -186 -150 -132 -144 -163 -173 -159 -160 -160 -156 -105 -120 -88 -109 -146 -145 -88
0 0 0 0 0 0 0 0 0 0 0 0 -2 0 0 0 0 -15 -26 -31 -34 0 0 0 -233 -279 -361 -338 -253 -268 -274 -261 -136 -79 -111 -149 -153 -147 -136 -160 -140 -129 -115 -109 -84 -140 -137 -98 -111
0 0 0 0 0 0 0 0 0 0 0 0 0 0 0 0 0 0 0 -3 0 0 0 0 0 -318 -376 -338 -230 -251 -265 -271 -178 -48 -81 -150 -144 -135 -138 -147 -124 -100 -97 -53 -99 -93 -117 -27 -3
0 0 0 0 0 -0 0 0 0 0 0 0 0 0 0 0 0 0 0 0 0 0 0 0 0 0 -266 -326 -270 -258 -215 -182 -76 -53 -63 -131 -136 -138 -148 -155 -92 -77 -66 -16 -60 -25 -15 -3 -4
-13 -7 -5 -5 -9 -2 0 -0 0 0 0 0 -0 -1 0 0 0 0 0 0 0 0 0 0 0 0 -337 -267 -245 -236 -182 -153 -58 -72 -57 -141 -150 -135 -147 -142 -100 -44 -14 -10 -9 -5 -7 -20 -25
-7 -10 0 -3 -1 -2 0 -3 0 0 0 0 0 -15 -10 -4 -3 -1 0 0 0 0 0 0 0 0 -250 -251 -178 -239 -234 -107 -10 -62 -98 -153 -160 -161 -149 -118 -69 -24 -6 -5 -7 -9 -10 -19 -18
-77 -6 -7 -2 0 -11 -14 -9 0 0 0 0 0 -10 0 0 -2 0 0 0 0 0 0 0 0 0 -276 -220 -264 -133 -151 -47 -9 -56 -118 -159 -186 -142 -122 -79 -23 -4 -4 -5 -10 -21 -19 -20 -31
-4 -8 -4 -3 -25 -4 0 0 0 0 0 0 0 -5 -13 -14 0 0 0 0 0 0 -107 -0 0 0 -402 -386 -203 -91 -79 -22 -7 -45 -61 -114 -125 -106 -70 -7 -6 -3 -6 -9 -15 -24 -34 -28 -11
-4 -12 -6 -14 -6 -7 -6 -6 0 -19 -20 -13 -2 -41 -30 -15 0 0 0 0 -18 -31 -71 -0 0 -149 -132 -92 -40 -39 -10 -9 -8 -20 -9 -37 -27 -26 -8 -3 -8 -11 -10 -13 -16 -18 -18 -16 -20
-4 -12 -12 -5 -16 -0 -9 0 -45 -16 -54 -30 -16 -34 -9 -6 0 0 -42 -28 -14 -37 -27 -309 -203 -74 -14 -11 -12 -4 -17 -2 -8 -8 -7 -11 -9 -9 -10 -6 -21 -14 -9 -6 -22 -6 -7 -42 -12
-35 -7 -36 -1 -15 -5 -6 0 -61 0 0 0 -0 -25 -6 -7 0 0 -27 -22 -65 -91 -22 -144 -104 -5 -2 -1 -2 -3 -13 -29 -17 -31 -67 -73 -49 -38 -28 -41 -53 -15 -6 -16 -16 -20 -11 -26 -23
Wind_Speed
24 23 24 25 23 22 30 28 33 33 25 24 18 18 21 25 19 11 9 9 16 19 20 23 22 22 21 20 21 21 21 20 20 20 20 20 20 20 20 19 19 19 19 19 19 19 20 20 21
22 23 24 23 25 28 29 30 30 25 19 13 22 18 22 22 10 4 5 13 13 17 20 22 23 21 20 18 17 17 18 18 18 18 18 18 18 17 17 17 17 17 17 17 18 18 18 19 19
23 26 24 22 28 33 31 31 22 14 15 11 12 17 21 18 7 4 6 10 11 14 17 20 21 21 20 18 16 15 15 15 15 15 15 15 15 15 15 15 15 15 15 16 16 16 16 17 17
19 22 26 30 33 31 36 34 28 10 13 13 23 14 19 11 11 2 7 10 9 12 15 17 19 19 18 17 15 15 14 13 13 13 13 13 13 12 12 13 12 13 13 13 13 14 15 15 16
24 27 32 34 34 35 37 36 31 23 15 18 16 20 15 12 8 4 6 7 8 10 11 14 18 17 16 15 13 13 13 12 11 10 10 10 10 10 10 10 10 10 10 10 11 11 12 13 14
24 24 32 35 36 38 37 35 34 26 24 16 15 14 14 5 2 1 5 6 6 8 9 11 14 15 14 14 13 12 12 11 9 8 7 7 7 8 8 8 7 7 8 8 9 9 10 12 13
33 32 35 38 38 37 36 34 32 28 25 27 23 17 24 1 3 3 6 6 6 8 7 9 10 12 13 13 12 12 11 9 8 6 6 5 5 5 5 5 5 4 4 5 6 6 8 10 11
35 37 42 39 40 41 35 38 34 31 28 31 29 27 24 30 4 5 9 8 7 5 4 5 7 10 11 10 10 9 9 8 7 5 3 3 3 3 3 3 2 2 2 2 3 4 6 8 9
36 44 45 40 40 40 36 36 35 36 34 33 28 27 15 11 3 3 9 9 6 6 5 4 5 7 8 8 8 7 6 5 5 4 3 2 1 1 2 1 2 3 2 1 1 2 4 7 8
31 42 39 41 39 37 37 36 33 34 35 35 32 21 16 16 16 13 9 10 9 7 7 5 4 6 6 4 5 4 2 2 3 2 2 3 2 2 3 4 5 5 4 4 3 3 4 6 8
34 41 34 41 44 40 43 41 35 36 38 33 26 32 23 19 14 15 11 12 10 8 8 9 6 5 5 3 3 1 0 2 4 5 4 3 4 4 5 6 5 5 6 6 5 5 5 6 7
42 45 43 50 48 49 49 45 41 39 41 39 35 29 22 24 24 18 14 15 11 10 10 9 7 6 5 1 1 2 3 2 3 4 5 4 5 5 7 8 6 6 5 7 6 6 6 7 7
45 46 48 51 49 49 50 53 48 42 39 43 42 38 31 20 24 25 22 16 22 17 16 19 9 5 3 4 6 5 5 5 5 4 5 5 6 7 8 8 7 6 5 5 6 6 6 6 6
40 47 50 49 49 49 47 51 47 54 44 42 44 43 30 25 29 27 29 26 21 16 19 16 3 5 5 6 6 9 7 7 7 6 7 7 8 9 9 8 8 8 5 5 5 6 7 6 6
40 48 49 52 49 48 44 54 55 51 46 47 44 45 44 34 24 28 37 28 25 25 24 23 18 9 10 11 11 10 10 8 9 9 9 9 9 10 10 9 8 7 7 6 5 6 6 6 7
40 41 49 44 40 50 39 59 57 52 48 46 48 46 47 45 39 31 30 27 24 26 25 23 23 18 15 14 13 11 11 11 12 12 13 12 11 11 10 9 9 7 6 8 7 7 7 7 9
35 49 47 50 40 43 39 55 58 46 48 51 45 45 48 48 45 35 38 36 26 28 28 25 23 21 14 14 13 12 13 14 15 15 16 14 12 11 9 9 7 6 7 7 8 8 10 10 10
41 43 44 49 47 47 47 48 57 52 52 50 49 47 44 46 47 42 32 37 33 24 22 25 23 22 20 19 15 17 17 18 19 19 18 15 12 10 9 9 7 6 6 7 7 8 9 10 10
43 45 51 51 50 49 47 48 58 48 47 50 49 45 49 49 43 40 40 36 34 30 29 28 26 24 25 25 23 23 24 24 23 20 17 14 12 10 9 8 7 5 6 6 7 7 8 8 8
42 46 51 51 48 46 52 55 56 51 51 45 45 45 45 49 43 42 32 27 26 28 28 28 28 28 27 28 28 26 24 23 22 19 17 13 11 9 8 6 5 4 6 5 5 6 7 8 8
40 43 48 51 47 45 54 58 56 56 49 48 45 43 40 42 45 39 41 36 28 29 29 30 30 30 30 29 29 26 26 28 26 18 14 11 9 8 6 5 3 3 3 4 4 5 5 8 6
47 41 45 47 49 55 43 61 56 54 54 49 50 50 40 38 42 43 39 35 36 33 29 28 29 32 32 30 27 25 25 25 23 18 12 10 9 6 4 3 3 4 3 3 3 4 5 5 7
44 42 45 47 50 52 52 53 59 51 56 50 44 52 47 40 41 42 43 38 39 41 39 39 37 34 30 26 26 26 25 21 17 12 10 8 5 3 3 3 4 2 1 3 2 4 3 4 8
41 44 46 48 50 59 56 54 63 55 55 51 45 39 44 42 46 38 41 43 44 43 42 38 34 31 27 26 24 23 20 15 13 10 8 6 4 2 3 3 2 2 1 3 4 5 5 8 9
32 30 42 43 49 57 51 53 56 55 49 53 49 38 29 32 35 36 36 33 34 34 32 31 29 24 23 22 18 16 16 12 12 7 6 5 5 5 3 2 1 1 0 3 7 7 8 8 8
36 34 42 50 49 47 45 45 47 49 50 52 48 41 34 39 36 26 26 29 30 28 27 25 25 21 19 17 15 14 13 12 9 6 4 5 4 3 2 3 2 2 2 6 8 8 8 8 9
35 35 32 44 46 48 47 46 39 43 46 45 44 39 24 25 21 22 25 29 30 33 28 22 20 21 19 16 15 12 10 10 7 5 3 2 3 3 5 4 3 2 4 7 8 8 8 6 8
19 35 41 32 36 40 38 39 35 33 31 42 43 40 31 24 21 23 26 29 28 28 30 24 18 16 16 12 10 10 9 8 6 4 6 5 5 5 5 4 2 5 7 7 7 6 6 7 8
10 34 27 26 18 24 34 33 26 27 29 31 40 32 29 15 21 24 26 26 30 30 33 19 15 12 9 8 7 7 8 5 4 4 2 3 5 6 5 4 5 6 6 6 5 7 4 7 7
33 29 29 16 16 25 36 41 27 30 28 26 28 29 10 14 21 28 22 24 27 27 29 16 14 9 7 6 6 6 6 5 4 3 2 2 4 5 4 4 5 4 4 5 6 5 6 7 7
Wind_Direction
270 271 273 275 272 274 265 269 244 257 273 272 274 291 276 265 310 313 98 98 102 109 112 116 115 111 107 107 104 100 99 94 91 88 86 85 83 83 80 76 72 70 66 62 58 55 53 48 41
272 270 272 275 268 265 267 248 267 272 290 291 275 281 274 270 346 63 82 106 103 106 113 119 121 117 113 108 103 97 98 96 92 90 89 84 85 82 80 77 75 72 68 63 57 54 49 44 40
272 264 271 274 265 261 264 249 291 287 300 297 295 282 274 278 3 84 77 110 103 104 113 118 122 121 119 115 109 103 99 95 94 90 87 86 86 83 80 78 78 74 69 62 56 55 50 43 42
283 270 269 266 262 264 251 258 283 295 273 285 273 294 277 297 319 5 105 113 107 108 117 122 126 125 123 118 112 112 110 105 99 93 88 89 88 84 80 78 79 74 70 64 60 57 50 43 38
277 270 264 263 263 262 255 263 283 283 284 286 286 282 285 296 335 92 122 122 115 115 116 122 131 127 125 121 118 116 117 114 109 100 94 89 89 88 86 85 84 77 71 67 63 56 49 42 34
272 274 264 263 264 261 261 265 278 275 280 291 291 291 295 290 267 158 138 143 128 121 117 118 131 131 129 129 128 125 127 123 118 108 101 96 94 93 97 96 92 84 77 74 65 57 47 37 31
264 267 266 265 265 266 263 271 279 280 273 276 283 288 276 239 253 198 176 165 145 122 119 118 127 136 135 135 135 135 135 131 126 119 106 104 101 97 106 109 106 92 90 75 68 56 39 31 27
265 268 266 266 265 265 267 270 274 282 279 268 271 284 282 271 217 180 179 175 156 143 141 128 126 136 142 140 144 143 142 139 139 137 124 127 121 110 133 128 122 122 118 90 67 48 27 23 18
264 264 263 265 265 268 272 274 274 273 276 273 275 281 297 302 268 193 185 185 180 169 164 143 141 141 145 143 150 155 155 150 159 155 165 167 151 183 194 229 234 209 198 202 345 6 7 10 7
262 263 263 264 268 274 274 273 275 273 270 269 269 278 287 279 264 259 211 191 192 183 186 181 159 145 146 136 142 154 170 175 190 202 217 230 237 258 269 278 241 239 236 248 273 304 328 348 353
263 261 269 268 265 269 269 272 276 273 270 269 268 268 273 281 270 260 236 213 218 213 206 194 180 169 150 145 150 152 214 195 210 223 231 272 274 272 278 296 278 270 253 265 270 285 306 324 338
265 266 267 265 266 268 268 269 272 267 268 267 274 268 274 269 268 254 235 239 234 234 224 197 186 170 178 245 230 292 295 278 237 235 227 261 297 282 283 287 289 267 273 254 266 278 289 305 317
265 267 267 264 267 266 268 265 268 268 267 265 268 270 272 263 266 265 257 256 266 298 276 245 214 197 244 246 304 280 285 283 274 265 238 256 288 295 299 290 269 282 263 260 264 275 280 296 310
274 270 268 267 266 267 268 268 268 259 265 267 266 266 270 264 268 264 264 266 272 280 280 298 267 266 273 281 276 295 284 287 286 281 276 251 279 303 297 288 281 266 261 257 261 272 286 281 304
278 272 272 266 267 268 270 267 263 263 262 264 265 264 262 268 254 258 254 264 270 274 279 284 295 285 285 294 300 291 294 291 285 296 283 268 276 283 298 286 268 272 251 265 276 260 284 302 306
280 278 272 272 272 268 273 265 263 264 264 262 263 264 261 262 265 265 265 269 265 268 272 275 282 292 282 291 296 292 291 290 298 292 297 292 275 284 281 291 290 249 263 263 281 291 295 304 309
279 273 275 274 275 275 267 267 262 266 265 262 262 263 262 261 264 264 264 266 266 267 268 266 274 286 289 288 292 292 294 296 298 297 298 296 285 274 288 284 286 268 264 273 284 282 304 307 312
281 278 278 274 274 275 273 269 266 264 265 265 263 261 261 260 261 265 262 260 268 269 264 266 270 279 288 297 293 297 299 295 296 295 296 293 286 282 272 292 279 275 282 281 283 296 298 310 314
286 283 279 278 280 280 278 274 267 267 265 263 264 264 262 262 264 260 262 260 258 260 262 266 267 272 283 288 293 293 294 296 295 294 294 293 287 275 285 284 287 263 283 284 293 300 301 310 316
285 283 280 282 284 282 277 274 270 271 266 266 262 261 264 263 264 262 261 260 252 258 261 265 265 270 278 285 289 293 299 299 295 295 294 287 286 278 280 279 270 268 299 286 289 295 315 313 325
287 285 284 282 286 283 277 273 270 267 271 267 269 265 260 261 263 265 260 258 258 261 264 265 267 271 276 282 286 289 293 296 303 297 297 290 285 282 269 249 277 294 287 289 296 315 309 324 318
286 289 287 286 283 276 280 272 269 268 266 269 267 268 265 258 260 262 265 262 261 267 273 272 271 270 274 278 281 282 286 292 289 292 291 291 289 270 237 246 289 324 296 297 326 324 322 316 338
289 290 288 285 282 281 274 273 268 269 266 267 266 264 266 263 264 261 262 264 267 269 271 274 274 271 270 269 273 279 283 290 292 288 286 289 277 235 229 266 295 312 285 336 355 351 340 344 341
299 290 288 284 281 273 273 273 268 266 265 267 270 267 264 265 264 264 265 269 269 268 269 271 266 262 262 266 270 273 276 274 279 273 273 283 281 268 271 256 268 311 280 4 4 2 0 347 347
299 296 291 282 277 273 276 272 271 270 269 264 265 277 271 264 261 262 262 262 267 268 269 271 271 259 259 260 262 254 263 261 275 245 260 265 269 268 252 218 231 320 7 10 356 356 352 349 345
298 298 286 283 283 281 286 279 276 276 268 264 265 269 270 275 265 264 264 267 268 271 270 267 269 260 257 256 251 256 251 263 256 233 250 279 259 244 205 175 161 129 37 4 357 352 349 352 346
298 295 298 292 285 282 285 282 288 278 269 260 259 267 262 269 268 266 272 273 272 273 275 269 265 264 256 256 255 242 244 233 227 234 221 197 162 164 160 156 131 96 6 1 356 355 354 4 360
283 260 285 296 286 283 290 284 282 292 284 260 255 253 267 264 267 273 273 271 274 272 270 272 263 258 259 249 240 236 227 232 230 204 175 157 137 129 131 121 77 0 359 2 2 6 13 9 7
238 248 235 238 302 293 295 280 255 291 294 273 252 244 253 254 265 272 277 273 273 270 262 263 258 250 240 236 222 209 208 207 184 157 100 87 109 109 108 87 9 1 6 14 21 359 34 14 15
288 280 286 334 298 302 290 248 295 286 284 275 267 243 240 254 272 271 277 278 271 259 255 256 249 230 228 213 196 191 175 166 152 135 94 81 72 80 70 38 19 33 53 51 29 40 38 29 32